Retour au catalogue

STARLINK-35175

ActifCommunicationsVLEO
NORAD 65929·PAYLOAD·🇺🇸 United States

Lancé Oct 8, 2025 depuis Vandenberg Space Force Base

Loading…

Prochains Passages (prochaines 24 heures)

TLE

FraisSource: CelesTrak SupGP

Époque: Sep 14, 2026, 15:51 UTC

1 65929C 25225V   26257.66090278 -.00034086  00000+0 -10074-2 0  2570
2 65929  53.1606   6.7385 0001289  73.8179  56.0413 15.34398390    13

Suivez STARLINK-35175 en temps réel avec AllMySat

Download on the App Store